Regional Weather Roundup
Issued by NWS

Home | Current Version | Previous Version | Text Only | Print | Product List | Glossary On
Versions: 1 2 3 4 5 6 7 8 9 10 11 12 13 14 15 16 17 18 19 20 21 22 23 24 25 26 27 28 29 30 31 32 33 34 35 36 37 38 39 40 41 42 43 44 45 46 47 48 49 50
000
ASUS43 KMKX 220511
RWRWI

WISCONSIN REGIONAL WEATHER ROUNDUP
NATIONAL WEATHER SERVICE MILWAUKEE/SULLIVAN WI
1200 AM CDT SUN OCT 22 2017

NOTE: "FAIR" INDICATES FEW OR NO CLOUDS BELOW 12,000 FEET WITH NO
SIGNIFICANT WEATHER AND/OR OBSTRUCTIONS TO VISIBILITY.

WIZ001-002-006>008-014>016-023>028-220600-
NORTHWEST WISCONSIN

CITY           SKY/WX    TMP DP  RH WIND       PRES   REMARKS
SUPERIOR ARPT  CLOUDY    55  52  91 W12       29.72R
ASHLAND        LGT RAIN  63  60  90 S9        29.70F
HAYWARD        LGT RAIN  58  55  90 SW15G26   29.77R
SIREN          CLOUDY    53  50  90 W13       29.79R
CUMBERLAND     RAIN      52  48  87 W8        29.81R
RICE LAKE      CLOUDY    55  51  86 W12G20    29.83R
CHETEK         CLOUDY    55  53  94 W9        29.82R
LADYSMITH      CLOUDY    62  59  91 S8        29.81S
EAU CLAIRE     LGT RAIN  58  56  93 W16G25    29.81R
MENOMONIE      CLOUDY    56  52  87 W8        29.83R
NEW RICHMOND   NOT AVBL
OSCEOLA        CLOUDY    54  49  83 W10       29.85R
$$

WIZ003>005-009-010-017-018-220600-
NORTH CENTRAL WISCONSIN

CITY           SKY/WX    TMP DP  RH WIND       PRES   REMARKS
MANITOWISH WTR LGT RAIN  65  59  81 S14G21    29.80R
ARBOR VITAE    TSTM      64  60  84 S16G25    29.83R
WOODRUFF       TSTM      64  60  84 S16G25    29.83R
RHINELANDER    CLOUDY    67  58  72 S12G21    29.83S
EAGLE RIVER    NOT AVBL
LAND O LAKES   CLOUDY    67  56  65 S12G20    29.83S
PHILLIPS       RAIN      60  59  96 SW12G18   29.81R
TOMAHAWK       LGT RAIN  65  57  74 SW3       29.83R
MEDFORD        TSTM      59  58  95 SW14      29.83F VSB 1
MERRILL        MOCLDY    68  59  73 S9G20     29.82F
$$

WIZ029-030-035-036-043>047-220600-
CENTRAL WISCONSIN

CITY           SKY/WX    TMP DP  RH WIND       PRES   REMARKS
WAUSAU         CLOUDY    67  58  72 S17G25    29.82F
MOSINEE        CLOUDY    64  59  82 S17       29.84F
MARSHFIELD     HVY RAIN  63  58  83 SW18G35   29.84R
STEVENS POINT  CLOUDY    66  58  75 S10G18    29.85F
WAUPACA        CLOUDY    69  59  70 SE9       29.87F
WAUTOMA        PTCLDY   N/A N/A N/A S12       29.86F
WISC RAPIDS    CLOUDY    70  60  70 S13G24    29.83F
CAMP DOUGLAS   NOT AVBL
$$

WIZ011>013-019>022-031-037>040-048>050-220600-
NORTHEAST WISCONSIN

CITY           SKY/WX    TMP DP  RH WIND       PRES   REMARKS
ANTIGO         CLOUDY    64  57  76 S15G22    29.87F
SHAWANO        MOCLDY    67  58  71 S6        29.88S
OCONTO         CLEAR     63  57  81 S7        29.90R
STURGEON BAY   MOCLDY    62  57  83 S20G28    29.92S
GREEN BAY      CLEAR     66  59  78 S14G23    29.90S
MANITOWOC      PTCLDY    60  55  83 S18       29.94S
APPLETON       CLOUDY    63  54  72 SE9       29.88S
CLINTONVILLE   PTCLDY    66  55  68 S9        29.88R
OSHKOSH        CLOUDY    67  58  72 S17       29.89S
$$

WIZ032>034-041-042-053>061-220600-
SOUTHWEST WISCONSIN

CITY           SKY/WX    TMP DP  RH WIND       PRES   REMARKS
LA CROSSE      RAIN      62  61  96 S14       29.81S
SPARTA         RAIN      61  60  97 S8        29.85S
VIROQUA        CLOUDY    60  60 100 S13G20    29.87R
BOSCOBEL       TSTM      63  59  87 SW7G24    29.87R FOG
PRAIRIE DU CHI LGT RAIN  61  58  90 CALM      29.85F
PLATTEVILLE    CLOUDY    69  61  74 S17       29.87S
$$

WIZ056-057-062-063-064-067-068-220600-
SOUTH CENTRAL WISCONSIN

CITY           SKY/WX    TMP DP  RH WIND       PRES   REMARKS
REEDSBURG      MOCLDY    69  60  72 S16G22    29.84F
BARABOO/DELLS  MOCLDY    68  57  68 S17G30    29.86F
LONE ROCK      CLOUDY    71  61  70 S16       29.84F
MINERAL POINT  MOCLDY    68  63  83 S13G22    29.87F
MADISON        MOCLDY    69  59  70 S16       29.89F
MIDDLETON      MOCLDY    70  58  66 S15       29.89F
WATERTOWN      PTCLDY    68  60  75 S20       29.92F
MONROE         CLOUDY    68  55  64 S18G25    29.91S
JANESVILLE     MOCLDY    70  55  60 S13G24    29.93F
$$

WIZ051-052-058>065-066-070>072-220600-
SOUTHEAST WISCONSIN

CITY           SKY/WX    TMP DP  RH WIND       PRES   REMARKS
MILWAUKEE      PTCLDY    68  58  70 S10       29.96F
WAUKESHA       PTCLDY    66  55  68 S12G20    29.96F
MILWAUKEE/TIMM PTCLDY    68  54  60 S12       29.96F
RACINE         CLOUDY    63  57  81 S12       29.99S
BURLINGTON     CLEAR     67  58  72 S14       29.96F
KENOSHA        CLOUDY    68  56  65 S13       29.98S
FOND DU LAC    PTCLDY    69  56  62 S15G23    29.90F
SHEBOYGAN      CLOUDY    61  58  90 S12       29.94S
WEST BEND      PTCLDY    68  55  64 S12G17    29.94F
JUNEAU         PTCLDY    68  58  69 S20G26    29.93S
$$

LSZ147-162-220600-
LAKE SUPERIOR

STATION/POSITION TIME  TEMP    WIND        PRES    WAVE
                       AIR SEA DIR/SP/G            HT/PER
                 (UTC) (F)     (DEG/KT/KT) (MB)    (FT/S)
W MID LAKE BUOY  0350   58 52              1005.8F   1/ 4
DEVILS ISLAND    0500   64     170/ 10/ 14 1005.1F
SAXON HARBOR     0440   70     190/  3/ 10 1005.4F
$$

LMZ867-665-643>646-220600-
LAKE MICHIGAN

STATION/POSITION TIME  TEMP    WIND        PRES    WAVE
                       AIR SEA DIR/SP/G            HT/PER
                 (UTC) (F)     (DEG/KT/KT) (MB)    (FT/S)
S GREEN BAY BUOY 0500   63 58  180/ 16/ 19 1012.3
N MID LAKE BUOY  0450   63 58  170/ 21/ 25 1013.8R   6/ 6
NORTHPORT PIER   0440   60     160/ 12/ 18 1013.5R
KEWAUNEE LAKESHO 0442   57     180/ 14/ 16 1013.0R
SHEBOYGAN LAKESH 0500   58     180/ 21/ 24 1013.8F
PORT WASHINGTON  0440   56     200/  4/ 10 1015.6R
ATWATER BUOY     0309   58 52  160/ 16/ 19 1014.5S
MILWAUKEE LAKESH 0450   58     150/ 12/ 13   N/A
S MID LAKE BUOY  0450   64 61  170/ 17/ 21 1016.2R   3/ 4
KENOSHA   LAKESH 0500   57     170/ 10/ 14 1015.6
$$

TC  - TEMPERATURE IN CELSIUS
VSB - VISIBILITY IN STATUTE MILES
WCI - WIND CHILL INDEX
HX  - HEAT INDEX




USA.gov is the U.S. government's official web portal to all federal, state and local government web resources and services.